AirNav   Pilot Hours Calculator
 
 864 users online  

CA84 Torrey Pines Gliderport
San Diego, California, USA

GOING TO SAN DIEGO?


FAA INFORMATION EFFECTIVE 28 MARCH 2019

Location

FAA Identifier: CA84
Lat/Long: 32-53-23.0000N / 117-14-49.0000W
32-53.383333N / 117-14.816667W
32.8897222 / -117.2469444
(estimated)
Elevation: 372 ft. / 113 m (estimated)
Variation: 13E (1985)
From city: 11 miles NW of SAN DIEGO, CA
Time zone: UTC -7 (UTC -8 during Standard Time)
Zip code: 92037

Gliderport Operations

Gliderport use: Private use. Permission required prior to landing
Activation date: 11/1961
Control tower: no
ARTCC: LOS ANGELES CENTER
FSS: SAN DIEGO FLIGHT SERVICE STATION
Attendance: UNATNDD
Wind indicator: no
Segmented circle: no

Gliderport Communications

WX ASOS at MYF (7 nm SE): 126.9 (858-576-4337)
WX ASOS at SAN (10 nm S): PHONE 619-296-8934
WX AWOS-3P at SEE (14 nm E): 125.45 (619-449-1228)
WX ASOS at CRQ (14 nm N): PHONE 760-930-0864
WX ASOS at RNM (19 nm NE): 132.025 (760-789-0736)

Nearby radio navigation aids

VOR radial/distance  VOR name  Freq  Var
MZBr335/6.5MISSION BAY VORTAC117.8015E
PGYr307/21.5POGGI VORTAC109.8014E
OCNr143/22.7OCEANSIDE VORTAC115.3015E
TIJr311/25.7TIJUANA VOR/DME116.5014E
JLIr231/36.5JULIAN VORTAC114.0015E

Gliderport Services

Airframe service: NONE
Powerplant service: NONE

Runway Information

Runway 9/27

Dimensions: 1500 x 30 ft. / 457 x 9 m
Surface: asphalt
RUNWAY 9  RUNWAY 27
Traffic pattern: leftleft
Obstructions: nonetrees, 100 ft. from runway

Gliderport Ownership and Management from official FAA records

Ownership: Publicly-owned
Owner: CITY OF SAN DIEGO
Manager: JIM FROST
4740 HARBINSON AVE
LA MESA, CA 91941
Phone 619-461-9614
WORK PHONE 619-535-9505 EXT 1585

Additional Remarks

GLIDER PORT IS LEASED FM CITY TO THE ASSOCD GLIDER CLUB OF SOUTHERN CALIF FOR STUDENT TRAINING & RIDGE SOARING.
ALL ACFT ARE TRAILERED GLIDERS.
ROLLING RWY .6 PERCENT GRADIENT.
EXTENSIVE HANG GLIDER OPERATIONS ON WEEKENDS AND WEEKDAYS.

Instrument Procedures

There are no published instrument procedures at CA84.

Some nearby airports with instrument procedures:

KNKX - Miramar MCAS (Joe Foss Field) Airport (5 nm E)
KMYF - Montgomery-Gibbs Executive Airport (7 nm SE)
KSAN - San Diego International Airport (10 nm S)
KNZY - North Island Naval Air Station (Halsey Field) (12 nm S)
KSEE - Gillespie Field Airport (14 nm E)
KCRQ - Mc Clellan-Palomar Airport (14 nm N)
KRNM - Ramona Airport (19 nm NE)
 
Loc | Ops | Rwys | IFR | FBO | Links
Com | Nav | Svcs | Stats | Notes
Area around CA84 (Torrey Pines Gliderport)
 
Road maps at: MapQuest Bing Google
 
Aerial photo
WARNING: Photo may not be current or correct
Aerial photo of CA84 (Torrey Pines Gliderport)
Photo by Doug Fronius
Photo taken 13-Mar-2004
from a 1942 Schweizer TG-2 sailplane.

Do you have a better or more recent aerial photo of Torrey Pines Gliderport that you would like to share? If so, please send us your photo.

 
Sectional chart

 
Airport distance calculator
Flying to Torrey Pines Gliderport? Find the distance to fly.

From to CA84

Sunrise and sunset
Times for 21-Apr-2019
 Local
(UTC-7)
 Zulu
(UTC)
Morning civil twilight05:4712:47
Sunrise06:1313:13
Sunset19:2202:22
Evening civil twilight19:4802:48

Current date and time
Zulu (UTC)  21-Apr-2019 19:08:42
Local (UTC-7)  21-Apr-2019 12:08:42
 
METAR
KNKX 
6nm E 
211855Z 25006KT 10SM FEW029 FEW036 19/09 A3004 RMK AO2 SLP168 T01890089
KMYF 
7nm SE 
211853Z 26007KT 10SM BKN027 17/08 A3005 RMK AO2 SLP173 T01720083
KSAN 
10nm S 
211851Z 25008KT 10SM BKN030 17/08 A3007 RMK AO2 SLP183 T01720078
KNZY 
11nm S 
211852Z 26008KT 10SM FEW015 SCT024 BKN031 17/08 A3005 RMK AO2 SLP177 T01720083
KCRQ 
15nm N 
211853Z 27006KT 10SM SCT023 BKN028 BKN036 17/10 A3004 RMK AO2 SLP170 T01670100
KSEE 
15nm E 
211847Z 28007KT 10SM SCT032 BKN037 18/08 A3005
KRNM 
19nm NE 
211853Z 27007KT 10SM SCT018 BKN030 17/08 A3003 RMK AO2 SLP162 T01720083
TAF
KNKX 
6nm E 
2115/2215 VRB05KT 9999 SCT020 OVC040 QNH3001INS BECMG 2117/2119 25007KT 9999 BKN040 QNH2993INS BECMG 2205/2207 VRB05KT 9999 OVC015 QNH2997INS T20/2121Z T12/2214Z
KSAN 
10nm S 
211720Z 2118/2224 27007KT P6SM OVC035 TEMPO 2118/2119 BKN025 FM212000 26009KT P6SM SCT035 FM220200 20004KT P6SM BKN020 FM221400 VRB03KT P6SM BKN025 FM221700 23004KT P6SM SCT025 FM222000 29008KT P6SM SKC
KNZY 
11nm S 
2115/2215 27008KT 9999 SCT025 SCT040 QNH2998INS TEMPO 2115/2118 8000 -RA BR BKN012 OVC035 FM211800 21009G15KT 9999 NSW FEW012 SCT025 QNH3002INS FM220000 VRB06KT 9999 SCT012 BKN025 QNH2997INS FM220600 VRB06KT 8000 BR BKN012 OVC025 QNH2999INS T15/2121Z T13/2212Z FS30141
KCRQ 
15nm N 
211720Z 2118/2218 23008KT P6SM BKN025 FM212000 23010KT P6SM SCT035 FM220200 21005KT P6SM SCT020 FM220600 VRB04KT P6SM BKN015 FM221500 VRB03KT P6SM BKN025 FM221700 26007KT P6SM SCT025
NOTAMs
Click for the latest NOTAMs
NOTAMs are issued by the DoD/FAA and will open in a separate window not controlled by AirNav.

 

 
 

Would you like to see your business listed on this page?

 If your business provides an interesting product or service to pilots, flight crews, aircraft, or users of the Torrey Pines Gliderport, you should consider listing it here.  To start the listing process, click on the button below
 
Add a business
 

Other Pages about Torrey Pines Gliderport

www.agcsc.org/torrey_pines_info.html
 
Update a link
 
Copyright © AirNav, LLC. All rights reserved. Privacy Policy  Contact